OBJECT T, 62626

Orbit data source: Space-Track

You're viewing an Uncataloged Satellite

Recently launched and/or uncataloged satellites may have evolving metadata. Metadata may include but not limited to: Owner, Maufacturer, Bus, Motor, and Mission.

OBJECT T, 62626 is a satellite in SSO that was launched on Tue, 14 Jan 2025 UTC via an FALCON 9 launch vehicle from the Air Force Western Test Range (AFWTR). Unknown objects in Earth's orbit typically refer to objects detected orbiting the Earth but have not yet been identified or cataloged. These objects could be anything from previously untracked satellites, spent rocket stages, debris from satellite collisions, or even natural meteoroids temporarily captured by Earth's gravity.

Loading next visibility...
Identifier
62626, 2025-009T
Orbit
SSO
Last TLE update
11 hours ago
Origin
Flag of TBDMBRSC (TBD)
Manufacturer
Rashid Space Ctr
Mission
Operational Civil Imaging
Bus & Motor
MBZSAT, Unknown motor
Mass
750 kg wet, ~700 kg dry
Launch date (UTC)
2025-01-14 (6 months ago)
Launch vehicle
FALCON 9
Launch site
Air Force Western Test Range (AFWTR)
Object type
Unknown
Shape & HBR
Hex Cyl + 4 Pan, 5 m
Radar Cross Section
14.173 m², Large (>1 m²)

Expand to show TLE details & history

TLE from 11 hours ago
0 OBJECT T
1 62626U 25009T   25186.30381085  .00006339  00000-0  29815-3 0  9997
2 62626  97.4290 266.2463 0006239 110.1312 250.0595 15.19903566 26035
Epoch: 2025-07-05T07:17Z
TLE epoch observation values (Epoch: 2025-07-05T07:17:29.257Z)
Latitude
0.00001°
Longitude
-126.66939°
Altitude
510.689 km
Speed
7.608 km/s
True Right ascension
17h 44m 59s
True Declination
0° 00' 00"
Sunlit
Object was in full shadow at epoch
Visualization orbit readout
Latitude
57.27166°
Longitude
-137.8457°
Altitude
513.037 km
Speed
7.614 km/s
Apparent Right ascension
17h 52m 20s
Apparent Declination
11° 22' 36"
Sunlit
Object is in daylight
Visualization observer readout
Local Sidereal Time
06:31:53
Azimuth
12.314° NNE
Elevation
-37.892°
Doppler factor
1
Orbital elements
Apogee altitude
507.392 km
Perigee altitude
498.806 km
Semi-major axis
6,881.236 km
Eccentricity
0.00062
Inclination
97.429°
RAAN
266.2463°
Arg. of periapsis
110.1312°
True anomaly
Unknown
Mean anomaly
250.0595°
Eccentric anomaly
Unknown
Mean motion
3.80227 °/min
Orbital period
94.68 mins
BSTAR
0.00029815
Loading maneuver chart data...
Loading SW <> Apogee altitude chart data...
Loading historical data...
Loading historical data...
Loading historical data...
Loading historical data...
Loading historical data...
Loading historical data...
Loading historical data...

OBJECT T Visibility forecast

Observer location: undefined°, undefined°

Span
Click to sort rows by Start time (UTC) header in descending order
Start Az.
Max El. time (UTC)
Max El. Az.
Max El.
End time (UTC)
End Az.
5 mins2025-07-05 18:54:19.753Z345.041° N2025-07-05 18:57:19.753Z287.427° WNW23.448°2025-07-05 18:59:19.753Z243.155° WSW
5 mins2025-07-06 05:33:19.753Z181.673° SSW2025-07-06 05:35:19.753Z272.425° WNW42.709°2025-07-06 05:38:19.753Z341.439° N
|